Time,TemperatureF,DewpointF,PressureIn,WindDirection,WindDirectionDegrees,WindSpeedMPH,WindSpeedGustMPH,Humidity,HourlyPrecipIn,Conditions,Clouds,dailyrainin,SoftwareType,DateUTC
2013-02-04 00:01:00,35.0,26.0,29.70,South,181,0.0,0.0,70,0.00,,,0.00,,2013-02-04 06:01:00,
2013-02-04 00:11:00,35.0,26.0,29.70,South,181,0.0,0.0,70,0.00,,,0.00,,2013-02-04 06:11:00,
2013-02-04 00:21:00,35.0,26.0,29.70,South,181,0.0,0.0,70,0.00,,,0.00,,2013-02-04 06:21:00,
2013-02-04 00:32:00,34.0,26.0,29.70,South,181,0.0,0.0,73,0.00,,,0.00,,2013-02-04 06:32:00,
2013-02-04 00:42:00,34.0,26.0,29.70,South,181,0.0,0.0,73,0.00,,,0.00,,2013-02-04 06:42:00,
2013-02-04 00:52:00,33.0,26.0,29.70,South,181,0.0,0.0,75,0.00,,,0.00,,2013-02-04 06:52:00,
2013-02-04 01:02:00,33.0,26.0,29.70,South,181,0.0,0.0,75,0.00,,,0.00,,2013-02-04 07:02:00,
2013-02-04 01:11:00,33.0,26.0,29.70,South,181,0.0,0.0,75,0.00,,,0.00,,2013-02-04 07:11:00,
2013-02-04 01:21:00,33.0,26.0,29.69,South,181,0.0,0.0,76,0.00,,,0.00,,2013-02-04 07:21:00,
2013-02-04 01:32:00,33.0,27.0,29.68,South,181,0.0,0.0,77,0.00,,,0.00,,2013-02-04 07:32:00,
2013-02-04 01:42:00,33.0,27.0,29.68,South,181,0.0,0.0,77,0.00,,,0.00,,2013-02-04 07:42:00,
2013-02-04 01:52:00,33.0,27.0,29.68,South,181,0.0,0.0,77,0.00,,,0.00,,2013-02-04 07:52:00,
2013-02-04 02:01:00,33.0,27.0,29.68,South,181,0.0,0.0,77,0.00,,,0.00,,2013-02-04 08:01:00,
2013-02-04 02:11:00,33.0,27.0,29.68,South,181,0.0,0.0,77,0.00,,,0.00,,2013-02-04 08:11:00,
2013-02-04 02:21:00,33.0,27.0,29.67,South,181,0.0,0.0,77,0.00,,,0.00,,2013-02-04 08:21:00,
2013-02-04 02:31:00,33.0,27.0,29.67,South,181,0.0,0.0,77,0.00,,,0.00,,2013-02-04 08:31:00,
2013-02-04 02:42:00,33.0,27.0,29.67,South,181,0.0,0.0,77,0.00,,,0.00,,2013-02-04 08:42:00,
2013-02-04 02:52:00,33.0,27.0,29.68,South,181,0.0,0.0,77,0.00,,,0.00,,2013-02-04 08:52:00,
2013-02-04 03:02:00,33.0,27.0,29.68,South,181,0.0,1.0,79,0.00,,,0.00,,2013-02-04 09:02:00,
2013-02-04 03:11:00,33.0,27.0,29.68,South,181,0.0,1.0,79,0.00,,,0.00,,2013-02-04 09:11:00,
2013-02-04 03:21:00,33.0,27.0,29.68,South,181,0.0,1.0,79,0.00,,,0.00,,2013-02-04 09:21:00,
2013-02-04 03:31:00,31.0,26.0,29.70,South,188,0.0,1.0,80,0.00,,,0.00,,2013-02-04 09:31:00,
2013-02-04 03:41:00,31.0,26.0,29.70,South,188,0.0,1.0,80,0.00,,,0.00,,2013-02-04 09:41:00,
2013-02-04 03:52:00,32.0,27.0,29.70,South,188,0.0,0.0,81,0.00,,,0.00,,2013-02-04 09:52:00,
2013-02-04 04:01:00,32.0,26.0,29.70,South,188,0.0,0.0,79,0.00,,,0.00,,2013-02-04 10:01:00,
2013-02-04 04:11:00,32.0,26.0,29.70,South,188,0.0,0.0,79,0.00,,,0.00,,2013-02-04 10:11:00,
2013-02-04 04:21:00,32.0,27.0,29.70,West,276,0.0,3.0,81,0.00,,,0.00,,2013-02-04 10:21:00,
2013-02-04 04:32:00,33.0,28.0,29.71,WNW,284,0.0,3.0,81,0.00,,,0.00,,2013-02-04 10:32:00,
2013-02-04 04:41:00,33.0,28.0,29.71,WNW,284,0.0,3.0,81,0.00,,,0.00,,2013-02-04 10:41:00,
2013-02-04 04:51:00,34.0,28.0,29.72,NW,319,1.0,8.0,79,0.00,,,0.00,,2013-02-04 10:51:00,
2013-02-04 05:02:00,33.0,27.0,29.73,NW,325,1.0,9.0,79,0.00,,,0.00,,2013-02-04 11:02:00,
2013-02-04 05:11:00,33.0,27.0,29.73,NW,325,1.0,9.0,79,0.00,,,0.00,,2013-02-04 11:11:00,
2013-02-04 05:22:00,33.0,27.0,29.73,NW,325,1.0,9.0,79,0.00,,,0.00,,2013-02-04 11:22:00,
2013-02-04 05:32:00,31.0,26.0,29.75,NNW,338,1.0,11.0,82,0.00,,,0.00,,2013-02-04 11:32:00,
2013-02-04 05:42:00,31.0,26.0,29.75,NNW,338,1.0,11.0,82,0.00,,,0.00,,2013-02-04 11:42:00,
2013-02-04 05:52:00,29.0,25.0,29.79,NNW,337,8.0,17.0,84,0.00,,,0.00,,2013-02-04 11:52:00,
2013-02-04 06:02:00,28.0,24.0,29.79,NNW,333,5.0,15.0,84,0.00,,,0.00,,2013-02-04 12:02:00,
2013-02-04 06:12:00,28.0,24.0,29.79,NNW,333,5.0,15.0,84,0.00,,,0.00,,2013-02-04 12:12:00,
2013-02-04 06:22:00,26.0,22.0,29.82,NNW,328,6.0,15.0,86,0.00,,,0.00,,2013-02-04 12:22:00,
2013-02-04 06:32:00,26.0,22.0,29.82,NNW,329,6.0,17.0,86,0.00,,,0.00,,2013-02-04 12:32:00,
2013-02-04 06:42:00,26.0,22.0,29.82,NNW,329,6.0,17.0,86,0.00,,,0.00,,2013-02-04 12:42:00,
2013-02-04 06:53:00,25.0,21.0,29.83,NNW,346,7.0,19.0,85,0.00,,,0.00,,2013-02-04 12:53:00,
2013-02-04 07:02:00,24.0,20.0,29.84,NNW,342,7.0,18.0,86,0.00,,,0.00,,2013-02-04 13:02:00,
2013-02-04 07:12:00,23.0,19.0,29.87,NW,317,9.0,18.0,86,0.00,,,0.00,,2013-02-04 13:12:00,
2013-02-04 07:21:00,23.0,19.0,29.87,NW,317,9.0,18.0,86,0.00,,,0.00,,2013-02-04 13:21:00,
2013-02-04 07:33:00,23.0,19.0,29.87,North,0,9.0,18.0,86,0.00,,,0.00,,2013-02-04 13:33:00,
2013-02-04 07:42:00,23.0,19.0,29.87,North,0,9.0,18.0,86,0.00,,,0.00,,2013-02-04 13:42:00,
2013-02-04 07:52:00,23.0,19.0,29.87,North,0,9.0,18.0,86,0.00,,,0.00,,2013-02-04 13:52:00,
2013-02-04 08:03:00,24.0,21.0,29.88,NW,317,7.0,16.0,87,0.00,,,0.00,,2013-02-04 14:03:00,
2013-02-04 08:11:00,24.0,21.0,29.88,NW,317,7.0,16.0,87,0.00,,,0.00,,2013-02-04 14:11:00,
2013-02-04 08:22:00,24.0,21.0,29.88,NW,313,5.0,15.0,87,0.00,,,0.00,,2013-02-04 14:22:00,
2013-02-04 08:32:00,24.0,20.0,29.90,North,355,5.0,14.0,86,0.00,,,0.00,,2013-02-04 14:32:00,
2013-02-04 08:42:00,24.0,20.0,29.90,North,355,5.0,14.0,86,0.00,,,0.00,,2013-02-04 14:42:00,
2013-02-04 08:52:00,24.0,20.0,29.90,North,355,5.0,14.0,86,0.00,,,0.00,,2013-02-04 14:52:00,
2013-02-04 09:03:00,24.0,20.0,29.90,North,355,5.0,14.0,86,0.00,,,0.00,,2013-02-04 15:03:00,
2013-02-04 09:12:00,24.0,20.0,29.90,North,355,5.0,14.0,86,0.00,,,0.00,,2013-02-04 15:12:00,
2013-02-04 09:24:00,24.0,20.0,29.91,NNW,339,4.0,11.0,84,0.00,,,0.00,,2013-02-04 15:24:00,
2013-02-04 09:33:00,25.0,20.0,29.91,North,355,4.0,11.0,82,0.00,,,0.00,,2013-02-04 15:33:00,
2013-02-04 09:43:00,25.0,20.0,29.91,North,355,4.0,11.0,82,0.00,,,0.00,,2013-02-04 15:43:00,
2013-02-04 09:53:00,25.0,20.0,29.93,NW,322,3.0,10.0,82,0.00,,,0.00,,2013-02-04 15:53:00,
2013-02-04 10:02:00,25.0,20.0,29.93,NNW,341,4.0,11.0,82,0.00,,,0.00,,2013-02-04 16:02:00,
2013-02-04 10:11:00,25.0,20.0,29.93,NNW,341,4.0,11.0,82,0.00,,,0.00,,2013-02-04 16:11:00,
2013-02-04 10:22:00,25.0,20.0,29.93,NNW,341,4.0,11.0,82,0.00,,,0.00,,2013-02-04 16:22:00,
2013-02-04 10:33:00,25.0,19.0,29.94,North,355,4.0,12.0,79,0.00,,,0.00,,2013-02-04 16:33:00,
2013-02-04 10:42:00,25.0,19.0,29.94,North,355,4.0,12.0,79,0.00,,,0.00,,2013-02-04 16:42:00,
2013-02-04 10:52:00,25.0,19.0,29.95,NNW,348,2.0,8.0,78,0.00,,,0.00,,2013-02-04 16:52:00,
2013-02-04 11:02:00,25.0,19.0,29.95,NNW,348,2.0,8.0,78,0.00,,,0.00,,2013-02-04 17:02:00,
2013-02-04 11:11:00,25.0,19.0,29.95,NNW,348,2.0,8.0,78,0.00,,,0.00,,2013-02-04 17:11:00,
2013-02-04 11:21:00,25.0,19.0,29.96,NE,41,3.0,10.0,76,0.00,,,0.00,,2013-02-04 17:21:00,
2013-02-04 11:32:00,25.0,19.0,29.96,NE,41,3.0,10.0,76,0.00,,,0.00,,2013-02-04 17:32:00,
2013-02-04 11:42:00,25.0,19.0,29.96,NE,41,3.0,10.0,76,0.00,,,0.00,,2013-02-04 17:42:00,
2013-02-04 11:52:00,25.0,19.0,29.96,NE,41,3.0,10.0,76,0.00,,,0.00,,2013-02-04 17:52:00,
2013-02-04 12:03:00,26.0,19.0,29.95,NNW,341,1.0,6.0,74,0.00,,,0.00,,2013-02-04 18:03:00,
2013-02-04 12:11:00,26.0,19.0,29.95,NNW,341,1.0,6.0,74,0.00,,,0.00,,2013-02-04 18:11:00,
2013-02-04 12:22:00,26.0,19.0,29.95,NNW,341,1.0,6.0,74,0.00,,,0.00,,2013-02-04 18:22:00,
2013-02-04 12:32:00,27.0,19.0,29.94,North,5,2.0,8.0,72,0.00,,,0.00,,2013-02-04 18:32:00,
2013-02-04 12:42:00,27.0,19.0,29.94,North,5,2.0,8.0,72,0.00,,,0.00,,2013-02-04 18:42:00,
2013-02-04 12:52:00,27.0,19.0,29.94,North,5,2.0,8.0,72,0.00,,,0.00,,2013-02-04 18:52:00,
2013-02-04 13:02:00,27.0,19.0,29.94,West,281,1.0,4.0,72,0.00,,,0.00,,2013-02-04 19:02:00,
2013-02-04 13:11:00,27.0,19.0,29.94,West,281,1.0,4.0,72,0.00,,,0.00,,2013-02-04 19:11:00,
2013-02-04 13:22:00,28.0,19.0,29.93,NNW,348,1.0,6.0,69,0.00,,,0.00,,2013-02-04 19:22:00,
2013-02-04 13:32:00,28.0,19.0,29.93,NNW,348,1.0,6.0,69,0.00,,,0.00,,2013-02-04 19:32:00,
2013-02-04 13:42:00,28.0,19.0,29.93,NNW,348,1.0,6.0,69,0.00,,,0.00,,2013-02-04 19:42:00,
2013-02-04 13:52:00,28.0,18.0,29.92,North,351,2.0,6.0,67,0.00,,,0.00,,2013-02-04 19:52:00,
2013-02-04 14:02:00,29.0,19.0,29.92,North,350,1.0,6.0,67,0.00,,,0.00,,2013-02-04 20:02:00,
2013-02-04 14:12:00,29.0,19.0,29.92,North,350,1.0,6.0,67,0.00,,,0.00,,2013-02-04 20:12:00,
2013-02-04 14:22:00,29.0,19.0,29.92,North,350,1.0,6.0,67,0.00,,,0.00,,2013-02-04 20:22:00,
2013-02-04 14:32:00,29.0,19.0,29.92,North,350,1.0,6.0,67,0.00,,,0.00,,2013-02-04 20:32:00,
2013-02-04 14:42:00,29.0,19.0,29.92,North,350,1.0,6.0,67,0.00,,,0.00,,2013-02-04 20:42:00,
2013-02-04 15:02:00,29.0,19.0,29.92,NNW,330,0.0,1.0,66,0.00,,,0.00,,2013-02-04 21:02:00,
2013-02-04 15:11:00,29.0,19.0,29.92,NNW,330,0.0,1.0,66,0.00,,,0.00,,2013-02-04 21:11:00,
2013-02-04 15:22:00,29.0,19.0,29.92,NNW,327,0.0,4.0,66,0.00,,,0.00,,2013-02-04 21:22:00,
2013-02-04 15:32:00,29.0,20.0,29.92,NW,323,0.0,3.0,68,0.00,,,0.00,,2013-02-04 21:32:00,
2013-02-04 15:42:00,29.0,20.0,29.92,NW,323,0.0,3.0,68,0.00,,,0.00,,2013-02-04 21:42:00,
2013-02-04 15:52:00,29.0,19.0,29.91,NW,323,0.0,0.0,66,0.00,,,0.00,,2013-02-04 21:52:00,
2013-02-04 16:02:00,29.0,19.0,29.91,NW,323,0.0,0.0,66,0.00,,,0.00,,2013-02-04 22:02:00,
2013-02-04 16:12:00,29.0,19.0,29.91,NW,323,0.0,0.0,66,0.00,,,0.00,,2013-02-04 22:12:00,
2013-02-04 16:21:00,29.0,19.0,29.91,NW,320,0.0,0.0,66,0.00,,,0.00,,2013-02-04 22:21:00,
2013-02-04 16:32:00,29.0,19.0,29.91,NW,320,0.0,0.0,66,0.00,,,0.00,,2013-02-04 22:32:00,
2013-02-04 16:42:00,29.0,19.0,29.91,NW,320,0.0,0.0,66,0.00,,,0.00,,2013-02-04 22:42:00,
2013-02-04 16:52:00,29.0,19.0,29.90,NW,319,0.0,0.0,65,0.00,,,0.00,,2013-02-04 22:52:00,
2013-02-04 17:01:00,29.0,19.0,29.90,NW,319,0.0,1.0,66,0.00,,,0.00,,2013-02-04 23:01:00,
2013-02-04 17:11:00,29.0,19.0,29.90,NW,319,0.0,1.0,66,0.00,,,0.00,,2013-02-04 23:11:00,
2013-02-04 17:21:00,29.0,19.0,29.88,NW,319,0.0,0.0,67,0.00,,,0.00,,2013-02-04 23:21:00,
2013-02-04 17:32:00,29.0,19.0,29.88,NW,319,0.0,0.0,67,0.00,,,0.00,,2013-02-04 23:32:00,
2013-02-04 17:42:00,29.0,19.0,29.88,NW,319,0.0,0.0,67,0.00,,,0.00,,2013-02-04 23:42:00,
2013-02-04 17:52:00,28.0,19.0,29.88,NW,319,0.0,0.0,69,0.00,,,0.00,,2013-02-04 23:52:00,
2013-02-04 18:01:00,27.0,19.0,29.88,NW,319,0.0,0.0,71,0.00,,,0.00,,2013-02-05 00:01:00,
2013-02-04 18:11:00,27.0,19.0,29.88,NW,319,0.0,0.0,71,0.00,,,0.00,,2013-02-05 00:11:00,
2013-02-04 18:22:00,27.0,19.0,29.88,NW,319,0.0,0.0,71,0.00,,,0.00,,2013-02-05 00:22:00,
2013-02-04 18:32:00,27.0,19.0,29.88,NW,319,0.0,0.0,71,0.00,,,0.00,,2013-02-05 00:32:00,
2013-02-04 18:42:00,27.0,19.0,29.88,NW,319,0.0,0.0,71,0.00,,,0.00,,2013-02-05 00:42:00,
2013-02-04 18:52:00,26.0,18.0,29.89,NW,319,0.0,0.0,72,0.00,,,0.00,,2013-02-05 00:52:00,
2013-02-04 19:02:00,26.0,19.0,29.89,NW,319,0.0,0.0,73,0.00,,,0.00,,2013-02-05 01:02:00,
2013-02-04 19:11:00,26.0,19.0,29.89,NW,319,0.0,0.0,73,0.00,,,0.00,,2013-02-05 01:11:00,
2013-02-04 19:22:00,26.0,19.0,29.89,NW,319,0.0,0.0,73,0.00,,,0.00,,2013-02-05 01:22:00,
2013-02-04 19:32:00,25.0,19.0,29.89,NW,319,0.0,1.0,77,0.00,,,0.00,,2013-02-05 01:32:00,
2013-02-04 19:42:00,25.0,19.0,29.89,NW,319,0.0,1.0,77,0.00,,,0.00,,2013-02-05 01:42:00,
2013-02-04 19:52:00,25.0,19.0,29.89,SW,234,0.0,3.0,77,0.00,,,0.00,,2013-02-05 01:52:00,
2013-02-04 20:01:00,26.0,19.0,29.91,SW,232,0.0,2.0,76,0.00,,,0.00,,2013-02-05 02:01:00,
2013-02-04 20:11:00,26.0,19.0,29.91,SW,232,0.0,2.0,76,0.00,,,0.00,,2013-02-05 02:11:00,
2013-02-04 20:22:00,25.0,19.0,29.91,SW,227,0.0,4.0,77,0.00,,,0.00,,2013-02-05 02:22:00,
2013-02-04 20:32:00,25.0,19.0,29.90,SW,225,0.0,2.0,78,0.00,,,0.00,,2013-02-05 02:32:00,
2013-02-04 20:42:00,25.0,19.0,29.90,SW,225,0.0,2.0,78,0.00,,,0.00,,2013-02-05 02:42:00,
2013-02-04 20:52:00,25.0,19.0,29.90,SW,225,0.0,2.0,78,0.00,,,0.00,,2013-02-05 02:52:00,
2013-02-04 21:02:00,25.0,20.0,29.89,South,174,0.0,4.0,80,0.00,,,0.00,,2013-02-05 03:02:00,
2013-02-04 21:11:00,25.0,20.0,29.89,South,174,0.0,4.0,80,0.00,,,0.00,,2013-02-05 03:11:00,
2013-02-04 21:21:00,25.0,20.0,29.88,South,173,0.0,4.0,81,0.00,,,0.00,,2013-02-05 03:21:00,
2013-02-04 21:32:00,26.0,21.0,29.87,South,173,3.0,9.0,82,0.00,,,0.00,,2013-02-05 03:32:00,
2013-02-04 21:42:00,26.0,21.0,29.87,South,173,3.0,9.0,82,0.00,,,0.00,,2013-02-05 03:42:00,
2013-02-04 21:51:00,26.0,21.0,29.86,South,181,3.0,9.0,82,0.00,,,0.00,,2013-02-05 03:51:00,
2013-02-04 22:01:00,25.0,21.0,29.85,South,169,3.0,10.0,83,0.00,,,0.00,,2013-02-05 04:01:00,
2013-02-04 22:11:00,25.0,21.0,29.85,South,169,3.0,10.0,83,0.00,,,0.00,,2013-02-05 04:11:00,
2013-02-04 22:21:00,25.0,21.0,29.85,South,169,3.0,10.0,83,0.00,,,0.00,,2013-02-05 04:21:00,
2013-02-04 22:32:00,25.0,21.0,29.85,South,169,3.0,10.0,83,0.00,,,0.00,,2013-02-05 04:32:00,
2013-02-04 22:42:00,25.0,21.0,29.85,South,169,3.0,10.0,83,0.00,,,0.00,,2013-02-05 04:42:00,
2013-02-04 22:52:00,26.0,22.0,29.84,South,170,2.0,10.0,85,0.00,,,0.00,,2013-02-05 04:52:00,
2013-02-04 23:02:00,26.0,22.0,29.84,South,170,2.0,10.0,85,0.00,,,0.00,,2013-02-05 05:02:00,
2013-02-04 23:11:00,26.0,22.0,29.84,South,170,2.0,10.0,85,0.00,,,0.00,,2013-02-05 05:11:00,
2013-02-04 23:22:00,26.0,22.0,29.84,South,174,1.0,6.0,85,0.00,,,0.00,,2013-02-05 05:22:00,
2013-02-04 23:32:00,26.0,22.0,29.83,South,184,1.0,5.0,85,0.00,,,0.00,,2013-02-05 05:32:00,
2013-02-04 23:42:00,26.0,22.0,29.83,South,184,1.0,5.0,85,0.00,,,0.00,,2013-02-05 05:42:00,
2013-02-04 23:52:00,26.0,22.0,29.83,South,184,1.0,5.0,85,0.00,,,0.00,,2013-02-05 05:52:00,